{"data":{"norad_id":50480,"intl_designator":"2021-132M","name":"ONEWEB-0400","alt_names":[],"object_type":"PAYLOAD","status":"ACTIVE","operator":null,"country":"UK","launch_date":"2021-12-27","launch_site_code":"TYMSC","launch_vehicle":null,"mission":null,"orbit_class":"UNKNOWN","rcs_meters":null,"size_class":null,"mass_kg":null,"dimensions":null,"purposes":["comms"],"wikipedia_slug":null,"has_3d_model":false,"image_url":null,"decayed_at":null,"tle_current":{"epoch":"2026-05-25T02:15:24.084000Z","epoch_age_seconds":67762,"freshness":"FRESH","line1":"1 50480U 21132M   26145.09402875 -.00000067  00000+0 -20271-3 0  9998","line2":"2 50480  87.9170 340.0398 0001714  93.2489 266.8839 13.18687841218567","mean_motion":13.18687841,"eccentricity":0.0001714,"inclination_deg":87.917,"raan_deg":340.0398,"arg_perigee_deg":93.2489,"mean_anomaly_deg":266.8839,"bstar":-0.00020271,"rev_number":21856,"period_min":109.19945988946,"perigee_km":1188.4389498174,"apogee_km":1191.0332167104,"semimajor_km":7567.8730832639,"source":"CELESTRAK","updated_at":"2026-05-25T13:38:22.530256Z"}}}